| time (UTC) | temp F | wind direction | speed knots | gust knots | rain 1hr in | rain 24hr in | rain mn in | humidity % | barometer mb |
| 20260506153016 | 61 | 135 | 0.9 | 5.2 | 0.02 | 0.31 | 0.31 | 91 | 1007.0 |
| 20260506150016 | 61 | 180 | 0.9 | 6.1 | 0.13 | 0.31 | 0.31 | 91 | 1006.8 |
| 20260506143016 | 60 | 225 | 0.9 | 7.8 | 0.14 | 0.29 | 0.29 | 91 | 1007.7 |
| 20260506140016 | 60 | 270 | 0.9 | 6.1 | 0.07 | 0.18 | 0.18 | 91 | 1007.7 |
| 20260506133016 | 60 | 203 | 0.9 | 7.0 | 0.06 | 0.15 | 0.15 | 91 | 1007.5 |
| 20260506130016 | 60 | 248 | 0.9 | 5.2 | 0.03 | 0.11 | 0.11 | 90 | 1007.7 |
| 20260506123016 | 60 | 248 | 0.9 | 4.3 | 0.05 | 0.09 | 0.09 | 90 | 1007.6 |
| 20260506120016 | 60 | 158 | 0.9 | 5.2 | 0.07 | 0.08 | 0.08 | 88 | 1007.8 |
| 20260506113016 | 61 | 225 | 0.9 | 3.5 | 0.04 | 0.04 | 0.04 | 85 | 1008.2 |
| 20260506110016 | 63 | 248 | 0.9 | 3.5 | 0.01 | 0.01 | 0.01 | 79 | 1007.6 |
| 20260506103016 | 65 | 225 | 0.9 | 6.1 | 0.00 | 0.00 | 0.00 | 72 | 1007.2 |
| 20260506100020 | 66 | 225 | 1.7 | 8.7 | 0.00 | 0.00 | 0.00 | 64 | 1007.0 |
| 20260506093020 | 66 | 248 | 1.7 | 5.2 | 0.00 | 0.00 | 0.00 | 63 | 1007.0 |
| 20260506090020 | 67 | 203 | 0.9 | 4.3 | 0.00 | 0.00 | 0.00 | 61 | 1007.2 |
| 20260506083040 | 67 | 248 | 0.9 | 7.0 | 0.00 | 0.00 | 0.00 | 61 | 1007.5 |
| 20260506073016 | 67 | 293 | 0.9 | 4.3 | 0.00 | 0.00 | 0.00 | 58 | 1007.4 |
| 20260506043016 | 71 | 248 | 1.7 | 11.3 | 0.00 | 0.00 | 0.00 | 45 | 1008.9 |
| 20260506040016 | 72 | 248 | 1.7 | 7.0 | 0.00 | 0.00 | 0.00 | 43 | 1008.7 |
| 20260506033015 | 71 | 248 | 1.7 | 7.8 | 0.00 | 0.00 | 0.00 | 43 | 1008.8 |
| 20260506030017 | 71 | 225 | 1.7 | 6.1 | 0.00 | 0.00 | 0.00 | 42 | 1008.6 |
| 20260506023037 | 72 | 248 | 1.7 | 5.2 | 0.00 | 0.00 | 0.00 | 38 | 1009.0 |
| 20260506020037 | 73 | 248 | 1.7 | 9.6 | 0.00 | 0.00 | 0.00 | 37 | 1009.0 |
| 20260506013017 | 73 | 225 | 1.7 | 5.2 | 0.00 | 0.01 | 0.00 | 37 | 1008.5 |
| 20260506010017 | 74 | 225 | 1.7 | 7.8 | 0.00 | 0.01 | 0.00 | 36 | 1008.2 |
| 20260506003017 | 75 | 180 | 0.9 | 9.6 | 0.00 | 0.01 | 0.00 | 38 | 1007.7 |
| 20260506000022 | 76 | 225 | 2.6 | 8.7 | 0.00 | 0.01 | 0.00 | 35 | 1007.6 |
| 20260505233037 | 77 | 248 | 2.6 | 9.6 | 0.00 | 0.01 | 0.00 | 36 | 1007.4 |
| 20260505230037 | 78 | 225 | 2.6 | 9.6 | 0.00 | 0.01 | 0.00 | 36 | 1007.4 |
| 20260505223017 | 78 | 225 | 2.6 | 10.4 | 0.00 | 0.01 | 0.00 | 35 | 1007.4 |
| 20260505220017 | 79 | 225 | 2.6 | 11.3 | 0.00 | 0.01 | 0.00 | 36 | 1007.7 |
| 20260505213017 | 82 | 225 | 3.5 | 10.4 | 0.00 | 0.01 | 0.00 | 35 | 1007.3 |
| 20260505210017 | 82 | 248 | 3.5 | 10.4 | 0.00 | 0.01 | 0.00 | 31 | 1007.2 |
| 20260505203017 | 81 | 248 | 3.5 | 12.2 | 0.00 | 0.01 | 0.00 | 37 | 1007.2 |
| 20260505200017 | 82 | 225 | 3.5 | 13.0 | 0.00 | 0.01 | 0.00 | 36 | 1007.4 |
| 20260505193017 | 81 | 270 | 2.6 | 12.2 | 0.00 | 0.01 | 0.00 | 39 | 1007.7 |
| 20260505190017 | 81 | 225 | 3.5 | 14.8 | 0.00 | 0.01 | 0.00 | 37 | 1008.0 |
| 20260505183037 | 81 | 248 | 2.6 | 10.4 | 0.00 | 0.01 | 0.00 | 38 | 1008.4 |
| 20260505180037 | 80 | 270 | 3.5 | 12.2 | 0.00 | 0.01 | 0.00 | 39 | 1008.6 |
| 20260505173017 | 80 | 225 | 3.5 | 17.4 | 0.00 | 0.01 | 0.00 | 39 | 1009.0 |
| 20260505170017 | 79 | 248 | 3.5 | 14.8 | 0.00 | 0.01 | 0.00 | 40 | 1009.4 |
| 20260505163016 | 78 | 225 | 3.5 | 11.3 | 0.00 | 0.01 | 0.00 | 41 | 1009.7 |